Location: Newark
(26.0600°N, 83.1900°E)
Time: 03:38:12
(UTC+00:00)

N. Korean satellite - Visible Passes

Search period start: 25 August 2019 00:00
Search period end: 04 September 2019 00:00
Orbit: 457 x 507 km, 97.2° (Epoch: 24 August)

Date Brightness Start Highest point End Pass type
(mag) Time Alt. Az. Time Alt. Az. Time Alt. Az.
26 Aug 9.6 23:33:40 10° NE 23:36:01 17° E 23:38:20 10° SE visible
30 Aug 9.8 23:26:58 10° ENE 23:28:41 13° E 23:30:23 10° SE visible
03 Sep 10.4 23:21:02 10° E 23:21:19 10° E 23:21:36 10° E visible
